TimeEDT,TemperatureF,Dew PointF,Humidity,Sea Level PressureIn,VisibilityMPH,Wind Direction,Wind SpeedMPH,Gust SpeedMPH,PrecipitationIn,Events,Conditions,WindDirDegrees,DateUTC
12:53 AM,72.0,69.1,91,29.97,5.0,Calm,Calm,-,N/A,,Clear,0,2013-09-12 04:53:00
1:53 AM,71.1,69.1,93,29.95,4.0,Calm,Calm,-,N/A,,Clear,0,2013-09-12 05:53:00
2:07 AM,69.8,68.0,94,29.95,2.5,Calm,Calm,-,N/A,,Clear,0,2013-09-12 06:07:00
2:17 AM,71.6,68.0,88,29.95,4.0,Calm,Calm,-,N/A,,Clear,0,2013-09-12 06:17:00
2:45 AM,69.8,68.0,94,29.95,2.5,Calm,Calm,-,N/A,,Clear,0,2013-09-12 06:45:00
2:53 AM,71.1,69.1,93,29.94,3.0,Calm,Calm,-,N/A,,Clear,0,2013-09-12 06:53:00
3:39 AM,71.6,68.0,88,29.95,2.5,Calm,Calm,-,N/A,,Clear,0,2013-09-12 07:39:00
3:53 AM,71.1,69.1,93,29.94,2.5,Calm,Calm,-,N/A,,Clear,0,2013-09-12 07:53:00
4:35 AM,71.6,69.8,94,29.94,3.0,Calm,Calm,-,N/A,,Clear,0,2013-09-12 08:35:00
4:53 AM,71.1,69.1,93,29.94,3.0,South,3.5,-,N/A,,Clear,190,2013-09-12 08:53:00
5:50 AM,71.6,69.8,94,29.94,2.5,Calm,Calm,-,N/A,,Clear,0,2013-09-12 09:50:00
5:53 AM,71.1,69.1,93,29.93,2.5,Calm,Calm,-,N/A,,Clear,0,2013-09-12 09:53:00
6:31 AM,71.6,69.8,94,29.93,1.8,Calm,Calm,-,N/A,,Partly Cloudy,0,2013-09-12 10:31:00
6:50 AM,71.6,69.8,94,29.93,2.0,Calm,Calm,-,N/A,,Clear,0,2013-09-12 10:50:00
6:53 AM,71.1,69.1,93,29.93,2.0,Calm,Calm,-,N/A,,Clear,0,2013-09-12 10:53:00
7:28 AM,71.6,69.8,94,29.93,3.0,South,5.8,-,N/A,,Partly Cloudy,180,2013-09-12 11:28:00
7:53 AM,73.0,70.0,90,29.92,3.0,South,8.1,-,N/A,,Clear,170,2013-09-12 11:53:00
8:01 AM,73.4,69.8,88,29.92,4.0,South,6.9,-,N/A,,Scattered Clouds,170,2013-09-12 12:01:00
8:18 AM,73.4,69.8,88,29.92,4.0,South,6.9,-,N/A,,Mostly Cloudy,180,2013-09-12 12:18:00
8:53 AM,75.9,71.1,85,29.91,5.0,SSE,4.6,-,N/A,,Haze,160,2013-09-12 12:53:00
9:53 AM,77.0,70.0,79,29.89,5.0,South,8.1,-,N/A,,Haze,190,2013-09-12 13:53:00
10:16 AM,78.8,69.8,74,29.89,6.0,SSE,8.1,-,N/A,,Haze,160,2013-09-12 14:16:00
10:41 AM,80.6,71.6,74,29.88,7.0,SSE,9.2,16.1,N/A,,Scattered Clouds,160,2013-09-12 14:41:00
10:53 AM,81.0,71.1,72,29.87,7.0,South,12.7,17.3,N/A,,Partly Cloudy,180,2013-09-12 14:53:00
11:53 AM,82.9,71.1,67,29.86,7.0,South,15.0,19.6,N/A,,Clear,170,2013-09-12 15:53:00
12:53 PM,84.0,70.0,63,29.83,8.0,South,13.8,19.6,N/A,,Clear,170,2013-09-12 16:53:00
1:53 PM,84.9,70.0,61,29.81,9.0,South,9.2,20.7,N/A,,Clear,180,2013-09-12 17:53:00
2:53 PM,82.0,70.0,67,29.77,9.0,South,11.5,19.6,N/A,,Clear,190,2013-09-12 18:53:00
3:53 PM,80.1,70.0,71,29.75,8.0,South,11.5,18.4,N/A,,Mostly Cloudy,180,2013-09-12 19:53:00
4:53 PM,81.0,71.1,72,29.73,8.0,South,15.0,19.6,N/A,,Clear,190,2013-09-12 20:53:00
5:53 PM,78.1,71.1,79,29.73,7.0,South,13.8,-,N/A,,Overcast,180,2013-09-12 21:53:00
6:53 PM,75.0,68.0,79,29.71,10.0,South,5.8,-,0.00,,Scattered Clouds,170,2013-09-12 22:53:00
7:46 PM,73.4,69.8,88,29.73,2.5,South,10.4,-,0.04,Rain,Heavy Rain,190,2013-09-12 23:46:00
7:53 PM,72.0,70.0,93,29.72,0.8,SSE,11.5,-,0.16,Rain,Heavy Rain,150,2013-09-12 23:53:00
8:00 PM,71.6,69.8,94,29.72,1.0,SSE,8.1,-,0.15,Rain,Heavy Rain,150,2013-09-13 00:00:00
8:08 PM,71.6,69.8,94,29.71,3.0,South,11.5,-,0.29,Rain,Rain,180,2013-09-13 00:08:00
8:53 PM,71.1,68.0,90,29.74,6.0,Calm,Calm,-,0.38,Rain,Light Rain,0,2013-09-13 00:53:00
9:53 PM,70.0,68.0,93,29.71,3.0,Calm,Calm,-,0.10,Rain,Rain,0,2013-09-13 01:53:00
10:42 PM,69.8,68.0,94,29.70,4.0,South,4.6,-,0.02,Rain,Light Rain,170,2013-09-13 02:42:00
10:53 PM,70.0,68.0,93,29.71,5.0,Calm,Calm,-,0.02,Rain,Light Rain,0,2013-09-13 02:53:00
11:53 PM,70.0,68.0,93,29.69,6.0,South,5.8,-,0.00,,Overcast,170,2013-09-13 03:53:00